Location: Bégole
(43.1574°N, 0.3291°E)
Time: 12:56:14
(UTC+00:00)

COSMO-SKYMED 1 - Pass Details

Date: 28 January 2023
Orbit: 621 x 623 km, 97.9° (Epoch: 20 March)

Event Time Altitude Azimuth Distance (km) Brightness Sun altitude
Rises 18:31:16 0° 7° (N) 2,916 5.8 -15.8°
Reaches altitude 10° 18:33:31 10° 2° (N) 2,005 5.0 -16.2°
Maximum altitude 18:37:44 50° 288° (WNW) 795 3.5 -16.9°
Drops below altitude 10° 18:41:55 10° 213° (SSW) 1,988 5.7 -17.7°
Sets 18:44:08 0° 208° (SSW) 2,890 6.5 -18.1°
